[[{"header":{"parameterUnit":"m.s-1","parameterCategory":2,"la1":30.2991,"la2":30.254,"lo1":-89.0895,"lo2":-89.0444,"dy":0.0017,"dx":0.0017,"nx":28,"ny":28,"refTime":"2026-02-24T09:00:00:Z","depth":"0","parameterNumber":2,"parameterNumberName":"U-component_of_CURRENTS"},"data":[0,0,0,0,0,0,0,0,0,0,0,0,0,0,0,0,0,0,0,0,0,0,0,0,0,0,0,0,0,0,0,0,0,0,0,0,0,0,0,0,0,0,0,0,0,0,0,0,0,0,0,0,0,0,0,0,0,0,-0.2088,-0.2089,0,-0.2117,-0.2117,-0.2117,-0.2088,-0.2087,-0.2086,-0.2085,-0.2046,-0.2046,-0.2045,0,0,0,0,0,0,0,0,0,0,0,0,0,-0.2,-0.2002,-0.2088,-0.2089,-0.2089,-0.2117,-0.2117,-0.2117,-0.2088,-0.2087,-0.2086,-0.2085,-0.2046,-0.2046,-0.2045,0,0,0,0,0,0,0,0,0,0,0,0,0,-0.2032,-0.2002,-0.2088,-0.208,-0.208,-0.2117,-0.2117,-0.2117,-0.2088,-0.2087,-0.2086,-0.2084,-0.2046,-0.2046,-0.2045,-0.207,0,0,-0.2044,-0.2044,0,0,0,0,0,0,0,0,-0.203,-0.2035,-0.2081,-0.2081,-0.2081,-0.21,-0.2071,-0.2099,-0.2089,-0.2082,-0.2085,-0.2084,-0.206,-0.2059,-0.2064,-0.2068,-0.2066,-0.2044,-0.2044,-0.2044,-0.2044,0,0,0,0,0,0,0,-0.2028,-0.2033,-0.2097,-0.2082,-0.2082,-0.2072,-0.2075,-0.2076,-0.2075,-0.2083,-0.2081,-0.2089,-0.2059,-0.2065,-0.2063,-0.2066,-0.2044,-0.2044,-0.2044,-0.2044,-0.2084,-0.2085,0,0,0,0,0,0,-0.2032,-0.2032,-0.2096,-0.2098,-0.2055,-0.2075,-0.2078,-0.2093,-0.2076,-0.2074,-0.209,-0.2088,-0.2066,-0.2063,-0.2061,-0.2085,-0.2044,-0.2043,-0.2043,-0.2082,-0.2084,-0.2085,0,0,0,0,0,0,-0.203,-0.2038,-0.2095,-0.2067,-0.2074,-0.2079,-0.2095,-0.2094,-0.2095,-0.2084,-0.2079,-0.2091,-0.2065,-0.2062,-0.2066,-0.2083,-0.2043,-0.2043,-0.2081,-0.2083,-0.2085,-0.2136,0,0,0,0,0,0,-0.2028,-0.2037,-0.2044,-0.2068,-0.2076,-0.2123,-0.2096,-0.2096,-0.2103,-0.21,-0.2083,-0.2078,-0.2063,-0.2067,-0.2066,-0.2082,-0.2043,-0.2079,-0.2082,-0.2084,-0.2132,-0.2139,-0.2145,0,0,0,0,0,-0.2025,-0.2045,-0.2044,-0.2052,-0.2087,-0.2124,-0.2127,-0.2124,-0.2105,-0.2116,-0.2102,-0.2079,-0.2081,-0.2068,-0.2067,-0.2083,-0.2078,-0.2081,-0.2084,-0.213,-0.2138,-0.2145,0,0,0,0,0,0,-0.2008,-0.2045,-0.2044,-0.2074,-0.2099,-0.212,-0.2129,-0.2128,-0.2127,-0.2118,-0.2096,-0.2092,-0.2103,-0.209,-0.2076,-0.2103,-0.2076,-0.2079,-0.2111,-0.2119,-0.2125,-0.2118,-0.2042,0,0,0,0,0,-0.201,-0.2032,-0.2067,-0.2087,-0.2102,-0.2115,-0.2126,-0.213,-0.2137,-0.2135,-0.2123,-0.2114,-0.2117,-0.2114,-0.2114,-0.213,-0.2115,-0.214,-0.2146,-0.2151,-0.2146,-0.215,-0.2155,-0.2095,-0.2095,-0.2095,0,0,-0.2006,-0.2031,-0.2041,-0.2085,-0.2099,-0.2134,-0.2118,-0.2144,-0.2163,-0.2131,-0.2144,-0.2136,-0.2127,-0.2144,-0.2148,-0.2132,-0.2163,-0.2155,-0.2159,-0.2151,-0.2153,-0.2159,-0.2164,-0.2097,-0.2096,-0.2096,0,0,-0.2023,-0.2037,-0.2066,-0.2094,-0.213,-0.2144,-0.2153,-0.218,-0.2181,-0.2203,-0.2183,-0.2187,-0.2189,-0.2188,-0.2187,-0.223,-0.2198,-0.2229,-0.2252,-0.2256,-0.2261,-0.2264,-0.2261,-0.2264,-0.223,-0.223,-0.223,0,-0.2015,-0.2058,-0.2079,-0.212,-0.2139,-0.215,-0.2185,-0.2201,-0.2222,-0.2224,-0.2212,-0.222,-0.2212,-0.2231,-0.2243,-0.2243,-0.2233,-0.2223,-0.2263,-0.2267,-0.227,-0.2264,-0.2267,-0.2233,-0.2232,-0.2232,-0.2232,0,-0.2061,-0.2092,-0.2113,-0.2164,-0.219,-0.2221,-0.2252,-0.2268,-0.2266,-0.2276,-0.229,-0.2286,-0.2284,-0.2292,-0.2278,-0.2299,-0.2281,-0.2272,-0.2241,-0.2279,-0.2271,-0.2273,-0.2237,-0.2236,-0.2235,-0.2234,0,0,-0.204,-0.2128,-0.2131,-0.2155,-0.2213,-0.2235,-0.2276,-0.2309,-0.2321,-0.2337,-0.2349,-0.2362,-0.2346,-0.2344,-0.2332,-0.2336,-0.2354,-0.2311,-0.2309,-0.2301,-0.2355,-0.2303,-0.23,-0.2347,-0.2348,-0.2348,-0.2343,0,-0.2062,-0.2135,-0.2175,-0.2226,-0.2259,-0.2287,-0.2319,-0.2348,-0.2362,-0.2378,-0.2379,-0.2386,-0.2371,-0.2365,-0.2371,-0.2356,-0.236,-0.2356,-0.2323,-0.2322,-0.2268,-0.2301,-0.2195,-0.2177,-0.2344,-0.2345,-0.2345,0,-0.2085,-0.2129,-0.2188,-0.2246,-0.2262,-0.2292,-0.2326,-0.2361,-0.2395,-0.2404,-0.2416,-0.2413,-0.2423,-0.2402,-0.24,-0.2395,-0.2376,-0.2366,-0.2365,-0.2297,-0.2274,-0.2166,-0.2174,-0.2139,-0.2347,-0.2347,-0.2347,0,-0.2043,-0.2128,-0.2166,-0.219,-0.2267,-0.2283,-0.2314,-0.2357,-0.2379,-0.2413,-0.2424,-0.2439,-0.2436,-0.2429,-0.2408,-0.2402,-0.24,-0.239,-0.233,-0.2326,-0.2217,-0.2202,-0.2178,-0.2387,-0.2387,-0.2387,-0.2387,0,-0.2041,-0.2068,-0.2146,-0.2166,-0.2195,-0.2256,-0.2282,-0.2318,-0.2366,-0.2384,-0.2423,-0.2431,-0.2441,-0.244,-0.242,-0.2378,-0.241,-0.2334,-0.2322,-0.2233,-0.2221,-0.2169,-0.2184,-0.2387,-0.2387,-0.2387,-0.2387,0,-0.1985,-0.2048,-0.2087,-0.2159,-0.2178,-0.219,-0.2256,-0.2271,-0.2333,-0.2358,-0.2368,-0.2421,-0.2424,-0.2432,-0.2421,-0.2383,-0.2311,-0.2334,-0.2226,-0.2201,-0.2099,-0.2122,-0.2095,-0.2035,-0.2263,-0.2262,-0.2261,0,-0.1965,-0.1981,-0.2052,-0.2063,-0.2092,-0.2127,-0.2147,-0.223,-0.2252,-0.234,-0.2339,-0.2378,-0.2382,-0.2366,-0.2319,-0.2284,-0.2265,-0.2151,-0.2121,-0.2079,-0.2096,-0.2115,-0.2067,-0.2002,-0.1999,-0.1996,-0.1994,0,-0.1902,-0.1925,-0.1955,-0.198,-0.2002,-0.2032,-0.2071,-0.2092,-0.2183,-0.2218,-0.226,-0.2283,-0.2293,-0.2218,-0.2183,-0.214,-0.2086,-0.2097,-0.2079,-0.1911,-0.1903,-0.1843,-0.2026,-0.1972,-0.1974,-0.1976,-0.1977,-0.1978,-0.1832,-0.1829,-0.1863,-0.1876,-0.1901,-0.1912,-0.1901,-0.1959,-0.199,-0.2025,-0.2119,-0.2126,-0.2102,-0.2045,-0.2001,-0.1873,-0.1943,-0.1796,-0.1834,-0.1862,-0.1781,-0.1913,-0.1832,-0.1833,-0.1835,-0.1836,-0.1837,0,-0.1733,-0.1744,-0.1752,-0.1765,-0.1742,-0.1797,-0.1823,-0.1795,-0.179,-0.1866,-0.1894,-0.1905,-0.1823,-0.1808,-0.1712,-0.1628,-0.1583,-0.1582,-0.1575,-0.1543,-0.1665,-0.1626,-0.1465,-0.1465,-0.1465,-0.1465,-0.1465,-0.1465,-0.1684,-0.1659,-0.1668,-0.1602,-0.16,-0.1538,-0.1529,-0.1515,-0.1541,-0.1551,-0.1596,-0.1676,-0.1684,-0.1733,-0.1592,-0.15,-0.1456,-0.1414,-0.1449,-0.1529,-0.1552,-0.1574,-0.1539,-0.1361,-0.1361,-0.1246,-0.1245,-0.1244]},{"header":{"parameterUnit":"m.s-1","parameterCategory":2,"la1":30.2991,"la2":30.254,"lo1":-89.0895,"lo2":-89.0444,"dy":0.0017,"dx":0.0017,"nx":28,"ny":28,"refTime":"2026-02-24T09:00:00:Z","depth":"0","parameterNumber":3,"parameterNumberName":"V-component_of_CURRENTS"},"data":[0,0,0,0,0,0,0,0,0,0,0,0,0,0,0,0,0,0,0,0,0,0,0,0,0,0,0,0,0,0,0,0,0,0,0,0,0,0,0,0,0,0,0,0,0,0,0,0,0,0,0,0,0,0,0,0,0,0,-0.0086,-0.0086,0,-0.0027,-0.0026,-0.0026,0.0014,0.0014,0.0014,0.0014,0.009,0.0091,0.0093,0,0,0,0,0,0,0,0,0,0,0,0,0,-0.0126,-0.0126,-0.0086,-0.0086,-0.0085,-0.0027,-0.0026,-0.0025,0.0014,0.0014,0.0014,0.0015,0.0089,0.0091,0.0093,0,0,0,0,0,0,0,0,0,0,0,0,0,-0.0092,-0.0126,-0.0087,-0.0059,-0.0056,-0.0027,-0.0026,-0.0025,0.0014,0.0014,0.0014,0.0015,0.0088,0.0091,0.0094,0.0105,0,0,0.0102,0.0103,0,0,0,0,0,0,0,0,-0.0094,-0.009,-0.0064,-0.0061,-0.0058,-0.0014,-0.0013,0.0019,0.0014,-0.0012,0.0014,0.0015,0.0056,0.0061,0.0072,0.0108,0.0111,0.0102,0.0104,0.0105,0.0106,0,0,0,0,0,0,0,-0.0096,-0.0092,-0.0062,-0.0063,-0.0059,-0.0036,-0.0031,-0.0006,0.002,-0.001,-0.0007,-0.0002,0.0058,0.007,0.0075,0.0112,0.0102,0.0105,0.0106,0.0107,0.0167,0.0167,0,0,0,0,0,0,-0.0107,-0.0095,-0.0064,-0.006,-0.0076,-0.0036,-0.003,-0.0028,0.002,0.0027,-0.0002,0.0,0.0065,0.0071,0.0077,0.009,0.0105,0.0108,0.0109,0.0167,0.0167,0.0167,0,0,0,0,0,0,-0.0109,-0.0105,-0.0066,-0.0077,-0.007,-0.0036,-0.0033,-0.0027,-0.0015,0.0025,0.0033,0.0003,0.0065,0.0074,0.0098,0.0094,0.0109,0.0111,0.0167,0.0167,0.0167,0.0118,0,0,0,0,0,0,-0.011,-0.0106,-0.011,-0.0078,-0.007,-0.0056,-0.0033,-0.0026,-0.0013,-0.001,0.0032,0.004,0.0066,0.0094,0.0101,0.0098,0.0113,0.0167,0.0167,0.0167,0.012,0.0116,0.0113,0,0,0,0,0,-0.0112,-0.012,-0.011,-0.0106,-0.0076,-0.0057,-0.0051,-0.0024,-0.0013,-0.0012,0.0019,0.0038,0.0098,0.0096,0.0104,0.0102,0.0167,0.0167,0.0167,0.0121,0.0117,0.0113,0,0,0,0,0,0,-0.0138,-0.0116,-0.0105,-0.0106,-0.0085,-0.005,-0.0048,-0.0029,-0.0004,-0.0,0.0039,0.0048,0.0068,0.0092,0.0089,0.0119,0.0136,0.0137,0.0098,0.0094,0.0091,0.0078,0.0116,0,0,0,0,0,-0.0147,-0.0148,-0.012,-0.0121,-0.0113,-0.0081,-0.007,-0.0053,-0.0026,-0.0014,0.0016,0.0048,0.0074,0.0089,0.0116,0.0132,0.0156,0.0136,0.0133,0.013,0.0125,0.0154,0.0153,0.0167,0.0167,0.0167,0,0,-0.0156,-0.0145,-0.0145,-0.0127,-0.0109,-0.0107,-0.0074,-0.0063,-0.0058,-0.001,0.0004,0.0037,0.0076,0.0095,0.0106,0.0114,0.014,0.013,0.0127,0.0124,0.0154,0.0153,0.0151,0.0167,0.0167,0.0167,0,0,-0.0183,-0.0167,-0.018,-0.0168,-0.0148,-0.0127,-0.0127,-0.0095,-0.0077,-0.0058,-0.0023,0.0007,0.0046,0.0074,0.0094,0.0089,0.0121,0.0097,0.0071,0.0099,0.0098,0.0098,0.0128,0.013,0.0096,0.0096,0.0096,0,-0.0196,-0.0208,-0.0179,-0.0189,-0.0186,-0.0141,-0.0154,-0.0128,-0.0091,-0.008,-0.0061,0.0,0.0036,0.0061,0.0063,0.0082,0.0102,0.0081,0.0094,0.0094,0.0094,0.0126,0.0129,0.0093,0.0094,0.0094,0.0094,0,-0.0233,-0.0242,-0.0248,-0.0246,-0.0236,-0.024,-0.0204,-0.0189,-0.0161,-0.0132,-0.01,-0.0046,-0.0011,0.0007,0.0036,0.0054,0.007,0.0085,0.01,0.009,0.0124,0.0128,0.009,0.0091,0.0092,0.0092,0,0,-0.0268,-0.0275,-0.0278,-0.0294,-0.027,-0.027,-0.0257,-0.0236,-0.0233,-0.0182,-0.0173,-0.0112,-0.0077,-0.0053,-0.001,0.0021,0.0048,0.005,0.0052,0.0073,0.011,0.016,0.017,0.0062,0.0062,0.0063,0.0134,0,-0.0308,-0.0351,-0.0334,-0.0367,-0.0387,-0.0346,-0.034,-0.0311,-0.0274,-0.025,-0.0181,-0.0153,-0.0101,-0.0084,-0.0045,0.0026,0.0056,0.0027,0.0123,0.0126,0.0167,0.0176,0.0199,0.0267,0.0138,0.0139,0.0139,0,-0.0353,-0.0379,-0.0424,-0.0441,-0.0445,-0.0449,-0.0438,-0.0425,-0.0369,-0.034,-0.029,-0.0233,-0.0168,-0.0129,-0.0016,-0.0038,0.0028,0.0083,0.0088,0.0153,0.0184,0.0258,0.028,0.0428,0.0147,0.0146,0.0145,0,-0.0409,-0.044,-0.0483,-0.0489,-0.0495,-0.0502,-0.0495,-0.0454,-0.045,-0.0392,-0.038,-0.0293,-0.0247,-0.0155,-0.0022,-0.0024,0.01,0.0113,0.0218,0.0223,0.0271,0.028,0.0443,0.0179,0.0179,0.0178,0.0178,0,-0.0464,-0.0498,-0.0514,-0.0541,-0.0587,-0.0561,-0.0587,-0.0563,-0.0529,-0.0528,-0.0431,-0.0407,-0.0252,-0.0155,-0.0044,0.0111,0.0087,0.0218,0.0246,0.0256,0.0262,0.0417,0.0477,0.0181,0.018,0.018,0.018,0,-0.0518,-0.0528,-0.0585,-0.0609,-0.0617,-0.0649,-0.0657,-0.0671,-0.0625,-0.0619,-0.0603,-0.0487,-0.0347,-0.0187,-0.0022,0.0087,0.0318,0.0278,0.0285,0.0314,0.0552,0.0606,0.0791,0.0869,0.0405,0.0407,0.0408,0,-0.055,-0.0585,-0.0644,-0.0682,-0.0696,-0.0731,-0.0754,-0.0725,-0.0734,-0.0669,-0.0671,-0.0533,-0.0426,-0.015,0.007,0.0286,0.0393,0.0427,0.0433,0.0579,0.066,0.0701,0.0755,0.0478,0.048,0.0481,0.0483,0,-0.0612,-0.0631,-0.068,-0.0763,-0.0805,-0.0851,-0.0875,-0.0896,-0.0853,-0.0829,-0.0764,-0.0669,-0.0377,-0.0106,0.0196,0.0326,0.0547,0.0466,0.0615,0.0735,0.079,0.0874,0.0419,0.0496,0.0495,0.0494,0.0493,0.0493,-0.0651,-0.0705,-0.077,-0.0844,-0.0901,-0.0956,-0.0989,-0.0995,-0.0999,-0.0942,-0.084,-0.0671,-0.0257,0.0183,0.0344,0.0708,0.068,0.0811,0.0866,0.0893,0.0977,0.0558,0.0669,0.0669,0.0668,0.0668,0.0668,0,-0.07,-0.076,-0.0843,-0.0932,-0.1006,-0.1012,-0.1059,-0.1069,-0.107,-0.0973,-0.0876,-0.0444,-0.0027,0.0367,0.088,0.109,0.1132,0.1194,0.1257,0.1292,0.0924,0.0936,0.1113,0.1113,0.1112,0.1112,0.1112,0.1112,-0.073,-0.0822,-0.0869,-0.0999,-0.1058,-0.1131,-0.1156,-0.1147,-0.1083,-0.0898,-0.0671,-0.0491,0.0095,0.0934,0.1421,0.147,0.1643,0.1637,0.173,0.1478,0.1446,0.1415,0.1444,0.1724,0.1724,0.2077,0.2081,0.2084]}],[{"header":{"parameterUnit":"m.s-1","parameterCategory":2,"la1":30.2991,"la2":30.254,"lo1":-89.0895,"lo2":-89.0444,"dy":0.0017,"dx":0.0017,"nx":28,"ny":28,"refTime":"2026-02-24T09:00:00:Z","depth":"2","parameterNumber":2,"parameterNumberName":"U-component_of_CURRENTS"},"data":[0,0,0,0,0,0,0,0,0,0,0,0,0,0,0,0,0,0,0,0,0,0,0,0,0,0,0,0,0,0,0,0,0,0,0,0,0,0,0,0,0,0,0,0,0,0,0,0,0,0,0,0,0,0,0,0,0,0,-0.1788,-0.1789,0,-0.1829,-0.1829,-0.183,-0.1817,-0.1816,-0.1815,-0.1815,-0.1808,-0.1809,-0.1809,0,0,0,0,0,0,0,0,0,0,0,0,0,-0.171,-0.1711,-0.1788,-0.1789,-0.179,-0.1829,-0.1829,-0.183,-0.1817,-0.1816,-0.1815,-0.1814,-0.1808,-0.1809,-0.1809,0,0,0,0,0,0,0,0,0,0,0,0,0,-0.1745,-0.1711,-0.1788,-0.1789,-0.179,-0.1829,-0.1829,-0.183,-0.1817,-0.1816,-0.1815,-0.1814,-0.1808,-0.1809,-0.1809,-0.1835,0,0,-0.1812,-0.1812,0,0,0,0,0,0,0,0,-0.1743,-0.1747,-0.1788,-0.1789,-0.179,-0.1818,-0.18,-0.183,-0.1817,-0.1805,-0.1815,-0.1813,-0.1809,-0.181,-0.1818,-0.1835,-0.1835,-0.1812,-0.1812,-0.1813,-0.1813,0,0,0,0,0,0,0,-0.174,-0.1746,-0.1803,-0.1789,-0.179,-0.1791,-0.1795,-0.1805,-0.181,-0.1806,-0.1805,-0.1813,-0.1809,-0.1817,-0.1818,-0.1835,-0.1812,-0.1812,-0.1813,-0.1813,-0.188,-0.1881,0,0,0,0,0,0,-0.174,-0.1744,-0.1801,-0.1804,-0.1765,-0.1794,-0.1797,-0.1809,-0.1811,-0.1811,-0.1814,-0.1812,-0.1817,-0.1817,-0.1817,-0.1854,-0.1813,-0.1813,-0.1814,-0.1879,-0.188,-0.1882,0,0,0,0,0,0,-0.1738,-0.1745,-0.18,-0.1776,-0.1783,-0.1796,-0.1809,-0.181,-0.1817,-0.1818,-0.1817,-0.1819,-0.1816,-0.1816,-0.1834,-0.1853,-0.1814,-0.1814,-0.1877,-0.1879,-0.1881,-0.1924,0,0,0,0,0,0,-0.1736,-0.1744,-0.1749,-0.1776,-0.1784,-0.1828,-0.181,-0.1812,-0.1824,-0.1823,-0.1823,-0.1821,-0.1815,-0.1833,-0.1835,-0.1854,-0.1815,-0.1875,-0.1878,-0.188,-0.1921,-0.1927,-0.1933,0,0,0,0,0,-0.1733,-0.1747,-0.1749,-0.1756,-0.1792,-0.1829,-0.1834,-0.1838,-0.1826,-0.1838,-0.1838,-0.1821,-0.185,-0.1835,-0.1836,-0.1856,-0.1874,-0.1877,-0.188,-0.1918,-0.1926,-0.1933,0,0,0,0,0,0,-0.1715,-0.1749,-0.1751,-0.1774,-0.1801,-0.1827,-0.1837,-0.1842,-0.1853,-0.1847,-0.1839,-0.1839,-0.1862,-0.1857,-0.1841,-0.1884,-0.1859,-0.1862,-0.1888,-0.1895,-0.1901,-0.1894,-0.1816,0,0,0,0,0,-0.1715,-0.1732,-0.1767,-0.1784,-0.1798,-0.1818,-0.1831,-0.184,-0.1855,-0.1858,-0.186,-0.1865,-0.1879,-0.1883,-0.1893,-0.1918,-0.1907,-0.1932,-0.1938,-0.1943,-0.194,-0.195,-0.1956,-0.1891,-0.1891,-0.1891,0,0,-0.1711,-0.1732,-0.1741,-0.1781,-0.1798,-0.1831,-0.1822,-0.185,-0.1874,-0.1856,-0.1883,-0.1886,-0.189,-0.1918,-0.1928,-0.1914,-0.1958,-0.1947,-0.1951,-0.1945,-0.1953,-0.1959,-0.1965,-0.1893,-0.1893,-0.1893,0,0,-0.172,-0.1733,-0.1754,-0.1783,-0.1819,-0.1838,-0.1848,-0.1881,-0.189,-0.1924,-0.1916,-0.1933,-0.1953,-0.1962,-0.1968,-0.2015,-0.1989,-0.2017,-0.2039,-0.2049,-0.2054,-0.2058,-0.2057,-0.206,-0.2018,-0.2018,-0.2018,0,-0.1712,-0.1746,-0.1766,-0.18,-0.1823,-0.1843,-0.1876,-0.1899,-0.1933,-0.1945,-0.1936,-0.1973,-0.1976,-0.2009,-0.2023,-0.2027,-0.2021,-0.2011,-0.2056,-0.206,-0.2063,-0.206,-0.2064,-0.2021,-0.202,-0.202,-0.202,0,-0.1742,-0.1771,-0.1787,-0.1835,-0.1865,-0.1896,-0.1935,-0.196,-0.1972,-0.1992,-0.2025,-0.2034,-0.2051,-0.2062,-0.2055,-0.2087,-0.207,-0.2062,-0.2034,-0.2072,-0.2067,-0.207,-0.2024,-0.2023,-0.2023,-0.2022,0,0,-0.1717,-0.1793,-0.1797,-0.1823,-0.1885,-0.1911,-0.1959,-0.2005,-0.2029,-0.2058,-0.2086,-0.2115,-0.211,-0.2116,-0.2114,-0.2123,-0.2145,-0.2101,-0.2101,-0.2093,-0.2156,-0.2096,-0.2093,-0.2142,-0.2142,-0.2143,-0.2143,0,-0.1731,-0.1791,-0.1831,-0.1885,-0.1917,-0.1958,-0.2001,-0.2044,-0.2073,-0.2106,-0.2121,-0.2146,-0.2135,-0.214,-0.2151,-0.2147,-0.2154,-0.2145,-0.2126,-0.2125,-0.2062,-0.2095,-0.1922,-0.1903,-0.2146,-0.2146,-0.2146,0,-0.1742,-0.1782,-0.1837,-0.1906,-0.1924,-0.196,-0.2019,-0.2062,-0.2117,-0.2138,-0.2166,-0.2176,-0.22,-0.218,-0.2194,-0.2186,-0.2173,-0.2167,-0.2167,-0.2094,-0.207,-0.1905,-0.1898,-0.2151,-0.215,-0.215,-0.215,0,-0.1701,-0.1782,-0.1821,-0.1847,-0.1932,-0.1959,-0.1999,-0.2063,-0.2097,-0.2152,-0.2174,-0.2207,-0.2216,-0.2217,-0.2206,-0.22,-0.221,-0.2202,-0.2137,-0.2132,-0.1972,-0.1951,-0.2207,-0.2207,-0.2207,-0.2207,-0.2207,0,-0.1694,-0.1723,-0.1803,-0.1824,-0.1866,-0.1933,-0.1978,-0.2026,-0.2091,-0.2124,-0.2176,-0.2198,-0.2223,-0.2232,-0.2219,-0.2183,-0.2221,-0.2141,-0.213,-0.1983,-0.1965,-0.2167,-0.2162,-0.2207,-0.2207,-0.2207,-0.2207,0,-0.164,-0.1698,-0.1741,-0.1823,-0.1848,-0.1871,-0.1956,-0.1985,-0.206,-0.2103,-0.2119,-0.219,-0.2203,-0.2221,-0.2222,-0.2188,-0.2169,-0.2145,-0.1966,-0.1933,-0.2081,-0.2079,-0.2075,-0.2073,-0.2071,-0.207,-0.2069,0,-0.1618,-0.1635,-0.1714,-0.1732,-0.1767,-0.1817,-0.1849,-0.1946,-0.1978,-0.2085,-0.2092,-0.2144,-0.215,-0.2146,-0.2102,-0.2071,-0.2128,-0.1885,-0.1846,-0.2079,-0.2069,-0.207,-0.207,-0.1652,-0.1647,-0.1644,-0.1641,0,-0.1562,-0.1588,-0.1621,-0.1656,-0.169,-0.1733,-0.1786,-0.1813,-0.1919,-0.196,-0.2009,-0.2032,-0.2045,-0.1936,-0.1906,-0.1862,-0.1879,-0.1808,-0.2095,-0.1717,-0.1681,-0.1671,-0.1685,-0.1607,-0.1611,-0.1613,-0.1615,-0.1616,-0.1505,-0.1505,-0.1542,-0.1567,-0.1603,-0.1624,-0.1621,-0.1684,-0.1721,-0.1755,-0.1851,-0.1826,-0.1828,-0.1698,-0.1624,-0.1565,-0.17,-0.1605,-0.1616,-0.1631,-0.1587,-0.155,-0.1443,-0.1445,-0.1447,-0.1449,-0.1451,0,-0.1423,-0.1433,-0.1449,-0.1472,-0.1462,-0.152,-0.1555,-0.153,-0.1522,-0.157,-0.1589,-0.1448,-0.1381,-0.1397,-0.1259,-0.1239,-0.122,-0.1177,-0.1143,-0.1177,-0.1206,-0.114,-0.0878,-0.0877,-0.0875,-0.0874,0,0,-0.1381,-0.1362,-0.1369,-0.1323,-0.1333,-0.1286,-0.1281,-0.1259,-0.1262,-0.1218,-0.1198,-0.1301,-0.1346,-0.1106,-0.1055,-0.0943,-0.1047,-0.0893,-0.1351,-0.1343,-0.1371,-0.1451,-0.1387,0,0,0,0,0]},{"header":{"parameterUnit":"m.s-1","parameterCategory":2,"la1":30.2991,"la2":30.254,"lo1":-89.0895,"lo2":-89.0444,"dy":0.0017,"dx":0.0017,"nx":28,"ny":28,"refTime":"2026-02-24T09:00:00:Z","depth":"2","parameterNumber":3,"parameterNumberName":"V-component_of_CURRENTS"},"data":[0,0,0,0,0,0,0,0,0,0,0,0,0,0,0,0,0,0,0,0,0,0,0,0,0,0,0,0,0,0,0,0,0,0,0,0,0,0,0,0,0,0,0,0,0,0,0,0,0,0,0,0,0,0,0,0,0,0,-0.0091,-0.0091,0,-0.004,-0.004,-0.0039,0.0003,0.0003,0.0004,0.0004,0.0078,0.008,0.0081,0,0,0,0,0,0,0,0,0,0,0,0,0,-0.0116,-0.0116,-0.0091,-0.0091,-0.009,-0.0041,-0.004,-0.0039,0.0003,0.0003,0.0004,0.0004,0.0077,0.0079,0.0081,0,0,0,0,0,0,0,0,0,0,0,0,0,-0.0088,-0.0116,-0.0091,-0.0064,-0.0061,-0.0041,-0.004,-0.0039,0.0003,0.0003,0.0004,0.0004,0.0077,0.0079,0.0082,0.0086,0,0,0.0089,0.009,0,0,0,0,0,0,0,0,-0.009,-0.0087,-0.0069,-0.0066,-0.0063,-0.0025,-0.0021,0.0004,0.0003,-0.0021,0.0004,0.0005,0.0045,0.005,0.0059,0.009,0.0093,0.0089,0.0091,0.0092,0.0093,0,0,0,0,0,0,0,-0.0092,-0.0089,-0.007,-0.0068,-0.0064,-0.0042,-0.0038,-0.0016,0.001,-0.0018,-0.0016,-0.0012,0.0047,0.0057,0.0061,0.0094,0.0089,0.0092,0.0093,0.0094,0.0144,0.0144,0,0,0,0,0,0,-0.0103,-0.0091,-0.0072,-0.0069,-0.0076,-0.0042,-0.0037,-0.0037,0.0009,0.0016,-0.0012,-0.001,0.0052,0.0058,0.0064,0.0074,0.0092,0.0094,0.0096,0.0144,0.0144,0.0144,0,0,0,0,0,0,-0.0104,-0.0102,-0.0074,-0.0079,-0.0074,-0.0043,-0.0043,-0.0036,-0.0025,0.0013,0.0021,-0.0007,0.0053,0.0061,0.0083,0.0077,0.0095,0.0098,0.0144,0.0144,0.0144,0.0093,0,0,0,0,0,0,-0.0104,-0.0102,-0.0107,-0.008,-0.0074,-0.0069,-0.0043,-0.0036,-0.0024,-0.0021,0.002,0.0027,0.0054,0.0079,0.0085,0.0081,0.01,0.0144,0.0144,0.0144,0.0094,0.0091,0.0087,0,0,0,0,0,-0.0106,-0.0118,-0.0107,-0.0105,-0.0081,-0.007,-0.0065,-0.004,-0.0025,-0.0026,0.0005,0.0026,0.0082,0.0081,0.0088,0.0084,0.0145,0.0144,0.0144,0.0096,0.0091,0.0087,0,0,0,0,0,0,-0.0131,-0.0115,-0.0102,-0.0109,-0.0093,-0.0064,-0.0063,-0.0044,-0.0021,-0.0015,0.0024,0.0034,0.0051,0.0074,0.0072,0.0098,0.0117,0.0118,0.0078,0.0074,0.007,0.0059,0.0102,0,0,0,0,0,-0.014,-0.0144,-0.0122,-0.0127,-0.0121,-0.0092,-0.0084,-0.0067,-0.0042,-0.0031,-0.0002,0.0029,0.0055,0.0069,0.0093,0.0107,0.0134,0.011,0.0106,0.0103,0.0099,0.0134,0.0133,0.0143,0.0143,0.0143,0,0,-0.015,-0.0142,-0.0143,-0.0132,-0.0117,-0.0119,-0.0086,-0.0079,-0.0076,-0.0027,-0.0015,0.0017,0.0055,0.0071,0.0081,0.009,0.0114,0.0102,0.0099,0.0098,0.0133,0.0132,0.0131,0.0142,0.0142,0.0142,0,0,-0.018,-0.0167,-0.0182,-0.0174,-0.0159,-0.014,-0.0141,-0.0114,-0.0097,-0.0082,-0.0045,-0.0017,0.0018,0.0047,0.0066,0.0058,0.0093,0.0064,0.0039,0.0072,0.0071,0.0071,0.0102,0.0105,0.0064,0.0064,0.0064,0,-0.0193,-0.021,-0.0185,-0.0198,-0.0196,-0.0154,-0.017,-0.0148,-0.0116,-0.0103,-0.0086,-0.0026,0.0007,0.0033,0.0032,0.0049,0.0073,0.005,0.0067,0.0067,0.0068,0.01,0.0104,0.0061,0.0062,0.0062,0.0062,0,-0.0236,-0.0247,-0.0255,-0.0258,-0.0251,-0.0257,-0.0227,-0.0214,-0.0186,-0.0159,-0.0127,-0.0076,-0.004,-0.0024,0.0003,0.0023,0.004,0.0056,0.0075,0.0064,0.0098,0.0103,0.0058,0.0059,0.0059,0.006,0,0,-0.027,-0.0284,-0.0287,-0.0301,-0.0284,-0.0286,-0.0277,-0.0258,-0.0252,-0.0208,-0.0194,-0.014,-0.0104,-0.008,-0.0038,-0.0006,0.0022,0.0023,0.0026,0.0048,0.0093,0.0123,0.0132,0.004,0.0041,0.0041,0.0115,0,-0.0311,-0.0357,-0.0345,-0.0378,-0.0398,-0.036,-0.0357,-0.033,-0.0294,-0.0269,-0.0202,-0.0173,-0.0127,-0.0108,-0.0069,0.0002,0.0033,0.0,0.0105,0.0108,0.0133,0.0138,0.0111,0.0177,0.012,0.0121,0.0122,0,-0.0357,-0.0383,-0.0429,-0.0444,-0.0448,-0.0455,-0.044,-0.0431,-0.0376,-0.0347,-0.0297,-0.0241,-0.0178,-0.0143,-0.003,-0.0053,0.0011,0.0066,0.007,0.0119,0.0148,0.018,0.0188,0.013,0.013,0.0129,0.0129,0,-0.0404,-0.0439,-0.0479,-0.0486,-0.0494,-0.05,-0.0494,-0.0455,-0.0449,-0.0392,-0.0378,-0.0291,-0.0244,-0.0153,-0.003,-0.0031,0.0093,0.0107,0.0194,0.0197,0.0206,0.0209,0.0176,0.0176,0.0176,0.0175,0.0175,0,-0.0455,-0.0486,-0.0506,-0.053,-0.057,-0.055,-0.0572,-0.0549,-0.0516,-0.0512,-0.0421,-0.0395,-0.0245,-0.0151,-0.0047,0.0095,0.0084,0.0192,0.0219,0.0188,0.0188,0.0173,0.0171,0.0178,0.0178,0.0177,0.0177,0,-0.05,-0.0513,-0.0565,-0.0589,-0.0597,-0.0624,-0.0633,-0.0644,-0.0601,-0.0592,-0.0576,-0.0466,-0.0335,-0.0184,-0.0023,0.0076,0.0204,0.0251,0.0206,0.0228,0.0288,0.0283,0.0357,0.0358,0.036,0.0361,0.0362,0,-0.0528,-0.056,-0.0615,-0.065,-0.0663,-0.0695,-0.0717,-0.0692,-0.0699,-0.0637,-0.0637,-0.0508,-0.0412,-0.0156,0.0039,0.0237,0.0237,0.0324,0.0321,0.0288,0.0307,0.03,0.0293,0.0312,0.0313,0.0313,0.0314,0,-0.0579,-0.0598,-0.0641,-0.0717,-0.0757,-0.0799,-0.0822,-0.0841,-0.0803,-0.0779,-0.072,-0.0635,-0.0378,-0.0155,0.0113,0.0225,0.0294,0.034,0.0322,0.0271,0.0253,0.0269,0.0263,0.0318,0.0317,0.0317,0.0317,0.0317,-0.061,-0.0656,-0.0716,-0.0783,-0.0836,-0.0888,-0.0918,-0.0924,-0.0927,-0.0872,-0.0788,-0.0639,-0.041,-0.0029,0.0168,0.0358,0.0347,0.0396,0.0392,0.0389,0.037,0.0356,0.0436,0.0437,0.0437,0.0437,0.0437,0,-0.0648,-0.0702,-0.0776,-0.0856,-0.0923,-0.0934,-0.0978,-0.0983,-0.0981,-0.0897,-0.0813,-0.056,-0.0297,-0.005,0.0251,0.0428,0.0416,0.046,0.0404,0.0399,0.0395,0.0374,0.0443,0.0444,0.0445,0.0445,0,0,-0.0671,-0.0751,-0.0793,-0.0909,-0.0964,-0.1032,-0.1055,-0.1039,-0.0982,-0.0895,-0.0775,-0.0608,-0.0302,-0.0087,0.0138,0.0301,0.0306,0.032,0.0294,0.0196,0.019,0.0336,0.0296,0,0,0,0,0]}],[{"header":{"parameterUnit":"m.s-1","parameterCategory":2,"la1":30.2991,"la2":30.254,"lo1":-89.0895,"lo2":-89.0444,"dy":0.0017,"dx":0.0017,"nx":28,"ny":28,"refTime":"2026-02-24T09:00:00:Z","depth":"4","parameterNumber":2,"parameterNumberName":"U-component_of_CURRENTS"},"data":[0,0,0,0,0,0,0,0,0,0,0,0,0,0,0,0,0,0,0,0,0,0,0,0,0,0,0,0,0,0,0,0,0,0,0,0,0,0,0,0,0,0,0,0,0,0,0,0,0,0,0,0,0,0,0,0,0,0,-0.1237,-0.1238,0,-0.1308,-0.1309,-0.131,-0.1349,-0.1349,-0.1349,-0.1349,-0.1425,-0.1427,-0.1429,0,0,0,0,0,0,0,0,0,0,0,0,0,-0.1155,-0.1156,-0.1237,-0.1238,-0.1239,-0.1308,-0.1309,-0.131,-0.1349,-0.1349,-0.1349,-0.1349,-0.1425,-0.1427,-0.1429,0,0,0,0,0,0,0,0,0,0,0,0,0,-0.1204,-0.1157,-0.1237,-0.1267,-0.1271,-0.1308,-0.1309,-0.131,-0.1349,-0.1349,-0.1349,-0.135,-0.1424,-0.1427,-0.1429,-0.1442,0,0,-0.1438,-0.1439,0,0,0,0,0,0,0,0,-0.1201,-0.1207,-0.1262,-0.1265,-0.1269,-0.132,-0.1308,-0.1354,-0.1349,-0.1319,-0.1349,-0.135,-0.1391,-0.1396,-0.1408,-0.1445,-0.1448,-0.1438,-0.144,-0.1441,-0.1442,0,0,0,0,0,0,0,-0.1198,-0.1204,-0.1265,-0.1263,-0.1267,-0.1284,-0.1291,-0.1317,-0.1352,-0.1321,-0.1324,-0.1333,-0.1393,-0.1405,-0.141,-0.1449,-0.1438,-0.1441,-0.1442,-0.1443,-0.1568,-0.1569,0,0,0,0,0,0,-0.1189,-0.1201,-0.1262,-0.1267,-0.1236,-0.1285,-0.1293,-0.1303,-0.1352,-0.136,-0.1333,-0.1335,-0.1401,-0.1407,-0.1413,-0.1492,-0.1441,-0.1444,-0.1445,-0.1566,-0.1568,-0.157,0,0,0,0,0,0,-0.1187,-0.1194,-0.126,-0.1236,-0.1245,-0.1286,-0.1297,-0.1305,-0.1338,-0.1361,-0.1368,-0.1361,-0.1401,-0.1409,-0.1461,-0.1493,-0.1445,-0.1447,-0.1564,-0.1567,-0.1569,-0.1611,0,0,0,0,0,0,-0.1184,-0.1193,-0.1207,-0.1235,-0.1247,-0.1296,-0.1298,-0.1306,-0.1342,-0.1345,-0.1387,-0.1393,-0.1402,-0.1457,-0.1463,-0.1496,-0.145,-0.1562,-0.1565,-0.1568,-0.1608,-0.1615,-0.1621,0,0,0,0,0,-0.1181,-0.1196,-0.1207,-0.1215,-0.1261,-0.1297,-0.1305,-0.1333,-0.1343,-0.1363,-0.1396,-0.1393,-0.1481,-0.146,-0.1468,-0.1502,-0.156,-0.1564,-0.1568,-0.1605,-0.1613,-0.162,0,0,0,0,0,0,-0.117,-0.1203,-0.1215,-0.1241,-0.1273,-0.1304,-0.1326,-0.1346,-0.1387,-0.1396,-0.1415,-0.1424,-0.148,-0.1487,-0.1464,-0.1547,-0.152,-0.1525,-0.1545,-0.1554,-0.156,-0.1551,-0.1452,0,0,0,0,0,-0.1173,-0.1193,-0.1227,-0.1249,-0.1266,-0.13,-0.1322,-0.1344,-0.1378,-0.1398,-0.1429,-0.1463,-0.1498,-0.1522,-0.1551,-0.1598,-0.159,-0.1625,-0.1632,-0.1637,-0.1636,-0.1655,-0.1663,-0.1582,-0.1582,-0.1582,0,0,-0.1176,-0.1196,-0.1208,-0.1249,-0.1275,-0.1309,-0.1314,-0.1354,-0.1392,-0.1399,-0.1464,-0.1488,-0.1516,-0.1569,-0.1595,-0.1582,-0.1657,-0.1642,-0.1646,-0.1642,-0.166,-0.1667,-0.1674,-0.1584,-0.1584,-0.1583,0,0,-0.1183,-0.1208,-0.1227,-0.1258,-0.1302,-0.1327,-0.1343,-0.139,-0.1422,-0.1481,-0.1498,-0.1542,-0.1599,-0.1625,-0.1644,-0.1704,-0.169,-0.1718,-0.1747,-0.1766,-0.1772,-0.1778,-0.1777,-0.1782,-0.1722,-0.1723,-0.1723,0,-0.1187,-0.1216,-0.124,-0.1269,-0.1301,-0.1338,-0.1373,-0.1411,-0.1474,-0.1504,-0.151,-0.1601,-0.1625,-0.1686,-0.1708,-0.1719,-0.1718,-0.1713,-0.1773,-0.1778,-0.1783,-0.178,-0.1785,-0.1725,-0.1725,-0.1725,-0.1724,0,-0.1205,-0.124,-0.1256,-0.1306,-0.1343,-0.1381,-0.1433,-0.1481,-0.1522,-0.1558,-0.1633,-0.1667,-0.1718,-0.1738,-0.1743,-0.1798,-0.1781,-0.1776,-0.1748,-0.1793,-0.1788,-0.1793,-0.1729,-0.1728,-0.1727,-0.1726,0,0,-0.1181,-0.1254,-0.1263,-0.1297,-0.1368,-0.1399,-0.1468,-0.1536,-0.1583,-0.1644,-0.1701,-0.1766,-0.1781,-0.1803,-0.1819,-0.1839,-0.1874,-0.1825,-0.1824,-0.1814,-0.1903,-0.1769,-0.1761,-0.1878,-0.1879,-0.188,-0.1884,0,-0.1191,-0.1245,-0.1287,-0.1355,-0.139,-0.1453,-0.1513,-0.1581,-0.1639,-0.1704,-0.1748,-0.1807,-0.1807,-0.1836,-0.1859,-0.1873,-0.1888,-0.1872,-0.1868,-0.1868,-0.1736,-0.1762,-0.1884,-0.1887,-0.1888,-0.1889,-0.1889,0,-0.119,-0.1231,-0.1293,-0.1383,-0.1406,-0.1457,-0.1557,-0.1617,-0.1708,-0.1753,-0.1813,-0.1846,-0.19,-0.1886,-0.1928,-0.1918,-0.1914,-0.1915,-0.1915,-0.1775,-0.1742,-0.1834,-0.1897,-0.1896,-0.1896,-0.1895,-0.1895,0,-0.1148,-0.1236,-0.1287,-0.1319,-0.1423,-0.1473,-0.1534,-0.1632,-0.1686,-0.1782,-0.1823,-0.1889,-0.1923,-0.194,-0.1946,-0.1944,-0.1968,-0.1965,-0.1839,-0.183,-0.193,-0.1924,-0.1984,-0.1984,-0.1984,-0.1984,-0.1984,0,-0.1129,-0.1174,-0.1276,-0.1303,-0.1375,-0.1456,-0.1539,-0.1609,-0.1704,-0.1756,-0.184,-0.1873,-0.1938,-0.196,-0.1958,-0.19,-0.1979,-0.1839,-0.1821,-0.1948,-0.1945,-0.1933,-0.1927,-0.1984,-0.1984,-0.1984,-0.1984,0,-0.1071,-0.1138,-0.1203,-0.1316,-0.1356,-0.1406,-0.153,-0.1579,-0.1681,-0.1748,-0.1777,-0.1871,-0.189,-0.193,-0.1952,-0.1896,-0.187,-0.183,-0.1955,-0.1946,-0.1717,-0.1714,-0.1689,-0.1684,-0.168,-0.1677,-0.1674,0,-0.1043,-0.107,-0.1191,-0.1228,-0.1284,-0.1372,-0.1426,-0.1549,-0.1593,-0.1723,-0.1732,-0.1801,-0.1842,-0.1765,-0.1819,-0.1796,-0.1777,-0.175,-0.1737,-0.1701,-0.1687,-0.169,-0.1692,-0.1668,-0.1667,-0.1666,-0.1665,0,-0.0988,-0.1039,-0.109,-0.1161,-0.1226,-0.1293,-0.1376,-0.1397,-0.1523,-0.1631,-0.1641,-0.1652,-0.1666,-0.1674,-0.1663,-0.165,-0.1762,-0.1708,-0.1716,-0.1705,-0.1675,-0.1666,-0.1673,-0.1651,-0.1653,-0.1654,-0.1655,0,-0.0946,-0.0962,-0.1028,-0.1082,-0.1154,-0.1184,-0.1249,-0.1293,-0.1353,-0.1492,-0.1486,-0.1561,-0.1642,-0.1597,-0.159,-0.1561,-0.1541,-0.1491,-0.151,-0.1526,-0.147,-0.1408,-0.1281,0,0,0,0,0,-0.0896,-0.0901,-0.0942,-0.0995,-0.1057,-0.1098,-0.1198,-0.1262,-0.1379,-0.1343,-0.1412,-0.1418,-0.1413,-0.1454,-0.1389,-0.1516,-0.1547,-0.1434,-0.15,-0.1574,-0.159,-0.1539,0,0,0,0,0,0,-0.0863,-0.0895,-0.0907,-0.0903,-0.0916,-0.0976,-0.1033,-0.1118,-0.1107,-0.1228,-0.123,-0.132,-0.1334,-0.1422,-0.1355,-0.1366,-0.1375,-0.1485,-0.1481,-0.1565,-0.158,-0.1593,-0.1545,0,0,0,0,0]},{"header":{"parameterUnit":"m.s-1","parameterCategory":2,"la1":30.2991,"la2":30.254,"lo1":-89.0895,"lo2":-89.0444,"dy":0.0017,"dx":0.0017,"nx":28,"ny":28,"refTime":"2026-02-24T09:00:00:Z","depth":"4","parameterNumber":3,"parameterNumberName":"V-component_of_CURRENTS"},"data":[0,0,0,0,0,0,0,0,0,0,0,0,0,0,0,0,0,0,0,0,0,0,0,0,0,0,0,0,0,0,0,0,0,0,0,0,0,0,0,0,0,0,0,0,0,0,0,0,0,0,0,0,0,0,0,0,0,0,-0.0088,-0.0087,0,-0.0056,-0.0055,-0.0055,-0.0019,-0.0019,-0.0018,-0.0018,0.0047,0.0048,0.0049,0,0,0,0,0,0,0,0,0,0,0,0,0,-0.0091,-0.0092,-0.0088,-0.0087,-0.0087,-0.0056,-0.0055,-0.0055,-0.0019,-0.0019,-0.0018,-0.0018,0.0046,0.0048,0.0049,0,0,0,0,0,0,0,0,0,0,0,0,0,-0.0077,-0.0092,-0.0088,-0.0066,-0.0064,-0.0056,-0.0055,-0.0055,-0.0019,-0.0019,-0.0018,-0.0017,0.0046,0.0048,0.005,0.0049,0,0,0.0056,0.0057,0,0,0,0,0,0,0,0,-0.0078,-0.0077,-0.007,-0.0068,-0.0065,-0.0042,-0.0033,-0.0019,-0.0019,-0.0035,-0.0018,-0.0017,0.0019,0.0023,0.0029,0.0052,0.0054,0.0056,0.0057,0.0058,0.0058,0,0,0,0,0,0,0,-0.0079,-0.0078,-0.0074,-0.0069,-0.0067,-0.0049,-0.0047,-0.003,-0.0011,-0.0034,-0.0031,-0.003,0.0021,0.0027,0.0031,0.0055,0.0056,0.0058,0.0059,0.006,0.0096,0.0096,0,0,0,0,0,0,-0.0087,-0.0079,-0.0075,-0.0073,-0.0071,-0.005,-0.0047,-0.0049,-0.0011,-0.0006,-0.003,-0.0028,0.0023,0.0028,0.0033,0.0039,0.0058,0.006,0.0061,0.0097,0.0096,0.0096,0,0,0,0,0,0,-0.0087,-0.0087,-0.0076,-0.0076,-0.0073,-0.0051,-0.0053,-0.0049,-0.0041,-0.0009,-0.0003,-0.0027,0.0024,0.003,0.0048,0.0041,0.0061,0.0062,0.0097,0.0097,0.0096,0.0047,0,0,0,0,0,0,-0.0088,-0.0088,-0.0093,-0.0077,-0.0074,-0.0078,-0.0054,-0.0049,-0.0041,-0.0038,-0.0004,0.0002,0.0025,0.0045,0.005,0.0045,0.0064,0.0097,0.0097,0.0096,0.0049,0.0045,0.0042,0,0,0,0,0,-0.0088,-0.0102,-0.0093,-0.0093,-0.0081,-0.0079,-0.0076,-0.0057,-0.0042,-0.0045,-0.0018,0.0001,0.0046,0.0046,0.0052,0.0047,0.0097,0.0097,0.0096,0.0051,0.0046,0.0042,0,0,0,0,0,0,-0.0107,-0.0099,-0.0089,-0.01,-0.0092,-0.0074,-0.0076,-0.0061,-0.0042,-0.0036,-0.0002,0.0006,0.0018,0.0039,0.0038,0.0057,0.0075,0.0076,0.0039,0.0034,0.0031,0.0024,0.0066,0,0,0,0,0,-0.0114,-0.0121,-0.0109,-0.0117,-0.0115,-0.0095,-0.0091,-0.0078,-0.006,-0.0051,-0.0028,-0.0001,0.002,0.0032,0.0052,0.0061,0.0088,0.0063,0.0059,0.0056,0.0055,0.009,0.009,0.0095,0.0095,0.0095,0,0,-0.0123,-0.012,-0.0123,-0.0121,-0.0112,-0.0119,-0.0091,-0.009,-0.0091,-0.0048,-0.0041,-0.0014,0.002,0.003,0.0038,0.0048,0.0068,0.0055,0.0052,0.0053,0.009,0.0089,0.0089,0.0094,0.0094,0.0095,0,0,-0.015,-0.0143,-0.0159,-0.0156,-0.015,-0.0138,-0.014,-0.0123,-0.0111,-0.0103,-0.0069,-0.0045,-0.0019,0.0007,0.0023,0.0012,0.0047,0.0017,-0.0005,0.0029,0.0029,0.0029,0.0059,0.0063,0.0017,0.0017,0.0017,0,-0.0161,-0.0179,-0.0163,-0.0178,-0.018,-0.015,-0.0166,-0.0153,-0.0132,-0.0121,-0.0108,-0.0058,-0.003,-0.0007,-0.001,0.0004,0.0028,0.0006,0.0024,0.0025,0.0026,0.0057,0.0061,0.0014,0.0015,0.0015,0.0015,0,-0.0199,-0.0212,-0.0222,-0.023,-0.023,-0.0239,-0.022,-0.0213,-0.0193,-0.0173,-0.0146,-0.0105,-0.0073,-0.0061,-0.0039,-0.0018,-0.0002,0.0014,0.0033,0.0023,0.0056,0.0061,0.0011,0.0012,0.0012,0.0013,0,0,-0.0225,-0.0246,-0.0249,-0.0262,-0.0258,-0.0263,-0.0263,-0.0252,-0.0248,-0.0216,-0.0204,-0.0162,-0.0129,-0.0108,-0.0072,-0.0041,-0.0013,-0.0015,-0.0012,0.0011,0.006,0.0052,0.0057,0.0005,0.0006,0.0007,0.0079,0,-0.0258,-0.0302,-0.0299,-0.0332,-0.035,-0.0326,-0.0329,-0.0312,-0.0287,-0.0267,-0.0211,-0.0186,-0.015,-0.0133,-0.0096,-0.0032,-0.0001,-0.0035,0.007,0.0073,0.0064,0.0062,0.0009,0.0083,0.0084,0.0085,0.0086,0,-0.0295,-0.0319,-0.0363,-0.0382,-0.0387,-0.0401,-0.0394,-0.0392,-0.0351,-0.0329,-0.0286,-0.024,-0.0184,-0.0155,-0.0051,-0.0074,-0.0014,0.0035,0.004,0.0053,0.0075,0.0098,0.0096,0.0095,0.0094,0.0094,0.0093,0,-0.0323,-0.0361,-0.0398,-0.0406,-0.0424,-0.0434,-0.0436,-0.0411,-0.041,-0.0364,-0.0353,-0.0276,-0.0236,-0.0151,-0.0047,-0.0047,0.0067,0.0082,0.0131,0.0132,0.014,0.0139,0.0151,0.0151,0.015,0.015,0.015,0,-0.0356,-0.0385,-0.0417,-0.0438,-0.0477,-0.0471,-0.0495,-0.0481,-0.0461,-0.0458,-0.0386,-0.0362,-0.0233,-0.015,-0.0058,0.0053,0.0063,0.0127,0.0149,0.0117,0.0113,0.0144,0.0142,0.0153,0.0152,0.0152,0.0151,0,-0.0377,-0.04,-0.0447,-0.0481,-0.0494,-0.052,-0.0545,-0.0557,-0.053,-0.0522,-0.0509,-0.0419,-0.0309,-0.0182,-0.0036,0.0034,0.0142,0.0178,0.013,0.0149,0.0187,0.0182,0.024,0.024,0.024,0.024,0.0241,0,-0.0392,-0.042,-0.0482,-0.0517,-0.0537,-0.0574,-0.06,-0.0592,-0.0599,-0.0557,-0.0552,-0.0451,-0.0377,-0.0177,-0.0046,0.0132,0.0154,0.0209,0.02,0.018,0.0196,0.0191,0.0185,0.0241,0.0241,0.0241,0.0241,0,-0.0416,-0.0441,-0.0479,-0.0555,-0.0599,-0.0644,-0.0674,-0.0684,-0.0665,-0.0647,-0.0579,-0.0469,-0.0345,-0.0183,-0.0044,0.0081,0.0173,0.0212,0.0212,0.0205,0.0182,0.0197,0.0191,0.0242,0.0242,0.0242,0.0242,0,-0.0429,-0.0464,-0.0522,-0.0582,-0.0646,-0.069,-0.0705,-0.0704,-0.0702,-0.0646,-0.0625,-0.0484,-0.0398,-0.021,-0.0085,0.0041,0.0072,0.0109,0.0116,0.0116,0.0058,0.001,0.0035,0,0,0,0,0,-0.0437,-0.0481,-0.0545,-0.0613,-0.0676,-0.071,-0.0745,-0.0747,-0.073,-0.0687,-0.0652,-0.0535,-0.0336,-0.0249,-0.0125,-0.0085,0.0088,0.0064,0.0132,0.0247,0.0246,0.0197,0,0,0,0,0,0,-0.0446,-0.0507,-0.0544,-0.0623,-0.0673,-0.0735,-0.0759,-0.0749,-0.0716,-0.0682,-0.0575,-0.0512,-0.0318,-0.0406,-0.0124,-0.0086,-0.0028,0.016,0.0163,0.0247,0.0246,0.0246,0.0195,0,0,0,0,0]}]]